Location: Eurasberg
(48.3353°N, 11.0839°E)
Time: 10:05:51
(UTC+00:00)

Helios 1A Rocket - Pass Details

Date: 18 January 2026
Orbit: 426 x 436 km, 98.3° (Epoch: 11 February)

Event Time Altitude Azimuth Distance (km) Brightness Sun altitude
Rises 05:25:14 0° 177° (S) 2,438 6.3 -15.3°
Reaches altitude 10° 05:27:18 10° 184° (S) 1,572 5.3 -15.0°
Maximum altitude 05:30:33 46° 259° (W) 609 2.6 -14.5°
Enters shadow 05:32:41 19° 326° (NNW) 1,128 4.0 -14.1°
